Torna al catalogo

STARLINK-11376

AttivoComunicazioniVLEO
NORAD 61575·PAYLOAD·🇺🇸 United States

Lanciato Oct 18, 2024 da Cape Canaveral Space Force Station

Loading…

Prossimi Passaggi (prossime 24 ore)

TLE

AggiornatoSource: CelesTrak SupGP

Epoca: Sep 14, 2026, 22:28 UTC

1 61575C 24187B   26257.93659722  .00046075  00000+0  37952-3 0  2578
2 61575  53.1570  83.3036 0001115  72.9133 306.1227 15.69687664    13

Traccia STARLINK-11376 in tempo reale con AllMySat

Download on the App Store